sat.trackr.live / text

‹ back to catalog

ONEWEB-0259

NORAD 48977 · 2021-060L

PAYLOAD ACTIVE UNKNOWN

§ Identity

Operator
Country
UK
Launch date
2021-07-01
Launch site
VOSTO
Launch vehicle
Mass (kg)
RCS (m²)

Purposes: comms

External: N2YO · Heavens-Above · Gunter

§ Orbital elements

Epoch: 2026-09-19T06:11:53.009088Z

Period
109.37 min
Inclination
87.9158°
Eccentricity
0.0001865
Mean motion
13.16593685 rev/d
Perigee alt
1,196.3 km
Apogee alt
1,199.2 km
Semi-major
7,575.9 km
B*
-9.0816e-5
RAAN
210.1055°
Arg perigee
73.5460°
Mean anomaly
286.5875°
Rev number
25,200

§ Raw data

ONEWEB-02591 48977U 21060L   26262.25825242 -.00000022  00000+0 -90816-4 0  99952 48977  87.9158 210.1055 0001865  73.5460 286.5875 13.16593685252001

JSON: /api/v1/satellites/48977 · /tle

For live sub-satellite position, see the globe view (requires WebGL).

§ Visibility from observer

Set your observer location to see the next 7 days of passes ≥ 10°. The values pass through the URL so the page stays shareable.

No JS? Fill the form by hand. The geolocation button needs JavaScript.